Home   Weather   Oran   Past weeks

Flag for Algeria Past Weather in Oran, Algeria — Yesterday and Last 2 Weeks

Now
72 °F

Passing clouds.


Feels Like: 75 °F
Forecast: 68 / 81 °F
Wind: 14 mph from Northeast

Location: Oran / Es Senia

Current Time: Sep 28, 2016 at 11:16:49 PM

Latest Report: Sep 28, 2016 at 10:30 PM


Visibility: N/A

Pressure: 30.21 "Hg

Humidity: 69%

Dew Point: 61 °F

Location of OranLocation

Past Weather in Oran — Graph

°F

Oran Temperature Yesterday

Maximum temperature yesterday: 84 °F (at 4:00 PM)
Minimum temperature yesterday: 66 °F (at 2:00 AM)
Average temperature yesterday: 74 °F

High & Low Weather Summary for the Past Weeks

 TemperatureHumidityPressure
High91 °F (Sep 21, 1:30 PM)100% (Sep 19, 7:00 AM)30.21 "Hg (Sep 19, 7:00 AM)
Low57 °F (Sep 17, 6:00 AM)17% (Sep 21, 1:00 PM)29.95 "Hg (Sep 14, 4:00 AM)
Average72 °F66%30.07 "Hg
* Reported Sep 13 10:00 PM — Sep 28 10:00 PM, Oran, Weather by CustomWeather, © 2016

Note: Actual official high and low records may vary slightly from our data, if they occured in-between our weather recording intervals... More about our weather records

Advertising

Oran Weather History for the Previous 24 Hours

Scroll right to see more
 ConditionsComfort  
Time TempWeatherWind HumidityBarometerVisibility
10:00 PM
Wed, Sep 28
72 °FPassing clouds.15 mph69%30.18 "HgN/A
9:30 PM72 °FPassing clouds.7 mph69%30.21 "HgN/A
9:00 PM72 °FPassing clouds.9 mph69%30.18 "HgN/A
8:30 PM72 °FPassing clouds.10 mph69%30.18 "HgN/A
8:00 PM72 °FPassing clouds.12 mph69%30.18 "HgN/A
7:30 PM72 °FPassing clouds.12 mph65%30.18 "HgN/A
7:00 PM73 °FPassing clouds.12 mph57%30.18 "HgN/A
6:30 PM73 °FScattered clouds.15 mph57%30.18 "HgN/A
6:00 PM75 °FScattered clouds.14 mph57%30.15 "HgN/A
5:30 PM75 °FPassing clouds.16 mph57%30.15 "HgN/A
5:00 PM77 °FPassing clouds.15 mph47%30.15 "HgN/A
4:30 PM77 °FPassing clouds.14 mph51%30.15 "HgN/A
4:00 PM79 °FPassing clouds.18 mph48%30.15 "HgN/A
3:30 PM77 °FPassing clouds.14 mph51%30.15 "HgN/A
3:00 PM81 °FPassing clouds.14 mph34%30.15 "HgN/A
2:30 PM79 °FPassing clouds.14 mph34%30.18 "HgN/A
2:00 PM79 °FPassing clouds.14 mph34%30.18 "HgN/A
1:30 PM81 °FPassing clouds.15 mph37%30.18 "HgN/A
1:00 PM79 °FPassing clouds.12 mph37%30.18 "HgN/A
12:30 PM81 °FPassing clouds.13 mph34%30.18 "HgN/A
12:00 PM79 °FPassing clouds.16 mph39%30.21 "HgN/A
11:30 AM75 °FScattered clouds.16 mph54%30.21 "HgN/A
11:00 AM75 °FScattered clouds.16 mph54%30.21 "HgN/A
10:30 AM72 °FScattered clouds.14 mph61%30.21 "HgN/A
10:00 AM70 °FScattered clouds.14 mph64%30.21 "HgN/A
9:30 AM70 °FScattered clouds.20 mph69%30.21 "HgN/A
9:00 AM70 °FScattered clouds.16 mph78%30.18 "HgN/A
8:30 AM70 °FScattered clouds.14 mph83%30.18 "HgN/A
8:00 AM66 °FScattered clouds.2 mph88%30.18 "HgN/A
7:30 AM63 °FScattered clouds.No wind88%30.15 "HgN/A
7:00 AM63 °FScattered clouds.No wind88%30.15 "HgN/A
6:30 AM64 °FPassing clouds.No wind88%30.12 "HgN/A
6:00 AM64 °FPassing clouds.No wind88%30.12 "HgN/A
5:30 AM66 °FPassing clouds.5 mph83%30.12 "HgN/A
5:00 AM66 °FPassing clouds.5 mph83%30.12 "HgN/A
4:30 AM66 °FPassing clouds.2 mph88%30.12 "HgN/A
4:00 AM68 °FPassing clouds.5 mph83%30.12 "HgN/A
3:30 AM70 °FPassing clouds.5 mph83%30.15 "HgN/A
3:00 AM70 °FPassing clouds.7 mph83%30.15 "HgN/A
2:30 AM70 °FPassing clouds.7 mph83%30.15 "HgN/A
2:00 AM70 °FPassing clouds.7 mph83%30.15 "HgN/A
1:00 AM72 °FPassing clouds.5 mph78%30.15 "HgN/A
12:30 AM72 °FPassing clouds.7 mph78%30.15 "HgN/A
12:00 AM72 °FPassing clouds.5 mph78%30.15 "HgN/A
11:30 PM
Tue, Sep 27
72 °FPassing clouds.7 mph83%30.18 "HgN/A
11:00 PM73 °FPassing clouds.9 mph78%30.18 "HgN/A
Weather by CustomWeather, © 2016

See weather overviewHow to use our weather pages